SBI6505 UIII-UNOO

Flight info

Callsign SBI6505
Flight time N/A
Altitude 36000
Route BOGRA5D BOGRA A815 TUTEK M97 KESUM R229 NN G828 SZ A487 URUKI A844 RUMOD RUMOD6B
Aircraft A320/M-SDE3FGHIRWY/LB1

Departure

Time 2026-04-29 10:14
Airport Irkutsk International Airport (UIII)

Arrival

Time N/A
Airport Omsk Central Airport (UNOO)
Time Latitude Longitude Altitude Speed Heading
2026-04-29 09:54 52.27191 104.36443 1651 ft 0 kts 201°
2026-04-29 10:07 52.27171 104.36431 1651 ft 3 kts 201°
2026-04-29 10:07 52.27149 104.36434 1651 ft 5 kts 140°
2026-04-29 10:07 52.27129 104.36515 1651 ft 10 kts 109°
2026-04-29 10:07 52.27105 104.36620 1651 ft 11 kts 111°
2026-04-29 10:08 52.27070 104.36772 1651 ft 17 kts 111°
2026-04-29 10:08 52.27035 104.36932 1651 ft 13 kts 110°
2026-04-29 10:08 52.27004 104.37065 1651 ft 12 kts 110°
2026-04-29 10:08 52.26988 104.37184 1651 ft 10 kts 76°
2026-04-29 10:09 52.26998 104.37285 1651 ft 8 kts 100°
2026-04-29 10:09 52.26978 104.37369 1651 ft 9 kts 112°
2026-04-29 10:09 52.26938 104.37520 1651 ft 19 kts 114°
2026-04-29 10:09 52.26873 104.37768 1651 ft 28 kts 113°
2026-04-29 10:10 52.26787 104.38089 1651 ft 32 kts 113°
2026-04-29 10:10 52.26699 104.38424 1651 ft 33 kts 113°
2026-04-29 10:10 52.26607 104.38767 1651 ft 33 kts 113°
2026-04-29 10:10 52.26514 104.39114 1651 ft 34 kts 113°
2026-04-29 10:11 52.26419 104.39475 1651 ft 35 kts 113°
2026-04-29 10:11 52.26321 104.39842 1651 ft 35 kts 114°
2026-04-29 10:11 52.26222 104.40216 1651 ft 36 kts 113°
2026-04-29 10:11 52.26121 104.40592 1651 ft 36 kts 113°
2026-04-29 10:12 52.26033 104.40922 1651 ft 31 kts 113°
2026-04-29 10:12 52.25994 104.41088 1651 ft 10 kts 97°
2026-04-29 10:12 52.26022 104.41176 1651 ft 8 kts 30°
2026-04-29 10:12 52.26097 104.41226 1651 ft 16 kts 26°
2026-04-29 10:13 52.26197 104.41299 1652 ft 10 kts
2026-04-29 10:13 52.26237 104.41257 1651 ft 12 kts 296°
2026-04-29 10:13 52.26281 104.41095 1651 ft 31 kts 294°
2026-04-29 10:13 52.26467 104.40393 1670 ft 101 kts 293°
2026-04-29 10:14 52.26970 104.38525 1792 ft 156 kts 295°
2026-04-29 10:14 52.27392 104.36922 2635 ft 153 kts 296°
2026-04-29 10:14 52.27834 104.35262 3234 ft 169 kts 297°
2026-04-29 10:14 52.28160 104.34050 3465 ft 183 kts 297°
2026-04-29 10:15 52.28684 104.32091 3970 ft 191 kts 297°
2026-04-29 10:15 52.29213 104.30101 4657 ft 191 kts 297°
2026-04-29 10:15 52.30039 104.28424 5176 ft 198 kts 328°
2026-04-29 10:15 52.31348 104.27454 5488 ft 219 kts 339°
2026-04-29 10:16 52.32879 104.26655 5911 ft 241 kts 341°
2026-04-29 10:16 52.34515 104.25852 6710 ft 248 kts 341°
2026-04-29 10:16 52.36176 104.25014 7590 ft 251 kts 341°
2026-04-29 10:16 52.37846 104.24129 8457 ft 253 kts 340°
2026-04-29 10:17 52.39521 104.23207 9338 ft 256 kts 339°
2026-04-29 10:17 52.41201 104.22257 10167 ft 260 kts 339°
2026-04-29 10:17 52.42950 104.21249 10680 ft 276 kts 339°
2026-04-29 10:17 52.44836 104.20149 10923 ft 299 kts 339°
2026-04-29 10:18 52.46873 104.18953 11105 ft 323 kts 339°
2026-04-29 10:18 52.49059 104.17666 11256 ft 344 kts 339°
2026-04-29 10:18 52.51356 104.16318 11706 ft 354 kts 339°
2026-04-29 10:18 52.53695 104.14951 12355 ft 358 kts 339°
2026-04-29 10:19 52.56064 104.13563 13019 ft 362 kts 339°
2026-04-29 10:19 52.58449 104.12161 13607 ft 367 kts 339°
2026-04-29 10:19 52.60871 104.10729 14214 ft 371 kts 339°
2026-04-29 10:19 52.63288 104.09298 14716 ft 376 kts 339°
2026-04-29 10:20 52.65762 104.07834 15218 ft 380 kts 338°
2026-04-29 10:20 52.68264 104.06354 15792 ft 383 kts 338°
2026-04-29 10:20 52.70780 104.04866 16327 ft 386 kts 338°
2026-04-29 10:20 52.73326 104.03357 16843 ft 390 kts 337°
2026-04-29 10:21 52.75887 104.01835 17362 ft 393 kts 337°
2026-04-29 10:21 52.78476 104.00295 17881 ft 396 kts 336°
2026-04-29 10:21 52.81079 103.98745 18388 ft 399 kts 336°
2026-04-29 10:21 52.83667 103.97203 18832 ft 402 kts 336°
2026-04-29 10:22 52.86310 103.95626 19252 ft 405 kts 335°
2026-04-29 10:22 52.89008 103.94012 19688 ft 408 kts 335°
2026-04-29 10:22 52.91693 103.92401 20109 ft 411 kts 335°
2026-04-29 10:22 52.94390 103.90786 20559 ft 413 kts 336°
2026-04-29 10:23 52.97062 103.89187 21004 ft 415 kts 335°
2026-04-29 10:23 52.99784 103.87558 21411 ft 417 kts 335°
2026-04-29 10:23 53.02526 103.85911 21794 ft 420 kts 334°
2026-04-29 10:23 53.05273 103.84255 22167 ft 422 kts 335°
2026-04-29 10:24 53.08045 103.82580 22553 ft 424 kts 335°
2026-04-29 10:24 53.10828 103.80895 22935 ft 427 kts 335°
2026-04-29 10:24 53.13628 103.79202 23309 ft 430 kts 335°
2026-04-29 10:24 53.16396 103.77307 23657 ft 429 kts 330°
2026-04-29 10:25 53.19105 103.75191 23976 ft 431 kts 330°
2026-04-29 10:25 53.21829 103.73060 24259 ft 434 kts 330°
2026-04-29 10:25 53.24567 103.70918 24537 ft 436 kts 330°
2026-04-29 10:25 53.27324 103.68759 24815 ft 438 kts 330°
2026-04-29 10:26 53.30091 103.66587 25092 ft 440 kts 330°
2026-04-29 10:26 53.32865 103.64406 25377 ft 442 kts 330°
2026-04-29 10:26 53.35652 103.62213 25642 ft 444 kts 329°
2026-04-29 10:26 53.38457 103.60005 25923 ft 445 kts 329°
2026-04-29 10:27 53.44041 103.55587 26702 ft 442 kts 328°
2026-04-29 10:27 53.46586 103.52912 27059 ft 434 kts 317°
2026-04-29 10:27 53.48807 103.49474 27360 ft 434 kts 311°
2026-04-29 10:28 53.50621 103.45421 27618 ft 436 kts 302°
2026-04-29 10:28 53.51971 103.40863 27978 ft 437 kts 291°
2026-04-29 10:28 53.52822 103.35974 28381 ft 437 kts 284°
2026-04-29 10:28 53.53497 103.30993 28799 ft 436 kts 284°
2026-04-29 10:29 53.54165 103.26036 29238 ft 434 kts 283°
2026-04-29 10:29 53.54826 103.21095 29687 ft 432 kts 283°
2026-04-29 10:29 53.55483 103.16172 30134 ft 431 kts 283°
2026-04-29 10:29 53.56136 103.11263 30531 ft 429 kts 283°
2026-04-29 10:30 53.56783 103.06370 30881 ft 428 kts 283°
2026-04-29 10:30 53.57429 103.01476 31160 ft 429 kts 284°
2026-04-29 10:30 53.58079 102.96564 31399 ft 431 kts 284°
2026-04-29 10:30 53.58729 102.91643 31699 ft 431 kts 284°
2026-04-29 10:31 53.59373 102.86723 32030 ft 430 kts 283°
2026-04-29 10:31 53.60014 102.81809 32374 ft 429 kts 283°
2026-04-29 10:31 53.60653 102.76903 32722 ft 428 kts 283°
2026-04-29 10:31 53.61286 102.72017 33079 ft 428 kts 283°
2026-04-29 10:32 53.61921 102.67121 33414 ft 427 kts 283°
2026-04-29 10:32 53.62551 102.62244 33768 ft 426 kts 283°
2026-04-29 10:32 53.63176 102.57367 34114 ft 425 kts 283°
2026-04-29 10:32 53.63794 102.52513 34391 ft 425 kts 283°
2026-04-29 10:33 53.64405 102.47695 34607 ft 426 kts 283°
2026-04-29 10:33 53.65025 102.42804 34845 ft 426 kts 283°
2026-04-29 10:33 53.65646 102.37909 35091 ft 426 kts 283°
2026-04-29 10:33 53.66262 102.33017 35343 ft 426 kts 283°
2026-04-29 10:34 53.66877 102.28118 35581 ft 426 kts 283°
2026-04-29 10:34 53.67492 102.23228 35813 ft 426 kts 283°
2026-04-29 10:34 53.68104 102.18338 36036 ft 426 kts 283°
2026-04-29 10:34 53.68714 102.13441 36217 ft 427 kts 283°
2026-04-29 10:35 53.69313 102.08580 36272 ft 430 kts 283°
2026-04-29 10:35 53.70532 101.98616 36273 ft 436 kts 283°
2026-04-29 10:36 53.71756 101.88573 36274 ft 437 kts 283°
2026-04-29 10:36 53.72971 101.78514 36274 ft 437 kts 283°
2026-04-29 10:37 53.74182 101.68427 36277 ft 437 kts 283°
2026-04-29 10:37 53.75383 101.58409 36280 ft 438 kts 283°
2026-04-29 10:38 53.76583 101.48305 36271 ft 439 kts 283°
2026-04-29 10:38 53.77774 101.38183 36273 ft 440 kts 283°
2026-04-29 10:39 53.78957 101.28027 36279 ft 440 kts 283°
2026-04-29 10:39 53.80132 101.17843 36284 ft 441 kts 283°
2026-04-29 10:40 53.81301 101.07665 36289 ft 441 kts 283°
2026-04-29 10:40 53.82448 100.97540 36277 ft 441 kts 283°
2026-04-29 10:41 53.83597 100.87321 36288 ft 442 kts 283°
2026-04-29 10:41 53.84746 100.77089 36293 ft 442 kts 283°
2026-04-29 10:42 53.85887 100.66835 36300 ft 442 kts 283°
2026-04-29 10:42 53.87022 100.56583 36303 ft 442 kts 283°
2026-04-29 10:43 53.88140 100.46398 36277 ft 443 kts 283°
2026-04-29 10:43 53.89252 100.36117 36286 ft 443 kts 283°
2026-04-29 10:44 53.90360 100.25833 36290 ft 444 kts 283°
2026-04-29 10:44 53.91464 100.15517 36294 ft 444 kts 283°
2026-04-29 10:45 53.92554 100.05206 36302 ft 444 kts 282°
2026-04-29 10:45 53.93636 99.94882 36297 ft 444 kts 282°
2026-04-29 10:46 53.94710 99.84567 36306 ft 444 kts 282°
2026-04-29 10:46 53.95768 99.74271 36306 ft 444 kts 282°
2026-04-29 10:47 53.96818 99.63929 36305 ft 444 kts 282°
2026-04-29 10:47 53.97862 99.53566 36309 ft 445 kts 282°
2026-04-29 10:48 53.98905 99.43192 36290 ft 446 kts 282°
2026-04-29 10:48 53.99940 99.32803 36293 ft 446 kts 282°
2026-04-29 10:49 54.00966 99.22400 36300 ft 446 kts 282°
2026-04-29 10:49 54.01983 99.11988 36301 ft 446 kts 282°
2026-04-29 10:50 54.02984 99.01570 36308 ft 446 kts 282°
2026-04-29 10:50 54.03977 98.91138 36294 ft 447 kts 282°
2026-04-29 10:51 54.04971 98.80676 36301 ft 448 kts 282°
2026-04-29 10:51 54.05958 98.70207 36307 ft 448 kts 282°
2026-04-29 10:52 54.06927 98.59785 36318 ft 448 kts 282°
2026-04-29 10:52 54.07892 98.49286 36323 ft 449 kts 282°
2026-04-29 10:53 54.08852 98.38771 36314 ft 450 kts 282°
2026-04-29 10:53 54.09806 98.28231 36319 ft 450 kts 282°
2026-04-29 10:54 54.10745 98.17686 36328 ft 450 kts 282°
2026-04-29 10:54 54.11678 98.07120 36331 ft 450 kts 282°
2026-04-29 10:55 54.12609 97.96560 36337 ft 450 kts 282°
2026-04-29 10:55 54.13528 97.85998 36317 ft 450 kts 282°
2026-04-29 10:56 54.14433 97.75407 36328 ft 451 kts 282°
2026-04-29 10:56 54.15331 97.64811 36334 ft 452 kts 282°
2026-04-29 10:57 54.16222 97.54207 36348 ft 452 kts 282°
2026-04-29 10:57 54.17104 97.43594 36351 ft 452 kts 282°
2026-04-29 10:58 54.17972 97.32963 36343 ft 452 kts 282°
2026-04-29 10:58 54.18832 97.22330 36345 ft 452 kts 282°
2026-04-29 10:59 54.19688 97.11688 36361 ft 452 kts 282°
2026-04-29 10:59 54.20532 97.01115 36364 ft 452 kts 282°
2026-04-29 11:00 54.21370 96.90461 36359 ft 453 kts 282°
2026-04-29 11:00 54.22194 96.79793 36366 ft 453 kts 282°
2026-04-29 11:01 54.23009 96.69123 36375 ft 453 kts 282°
2026-04-29 11:01 54.23819 96.58440 36367 ft 453 kts 282°
2026-04-29 11:02 54.24488 96.49556 36381 ft 453 kts 282°
2026-04-29 11:02 54.25274 96.38864 36370 ft 453 kts 281°
2026-04-29 11:03 54.26296 96.26473 36364 ft 450 kts 288°
2026-04-29 11:03 54.28029 96.18119 36374 ft 444 kts 296°
2026-04-29 11:04 54.30342 96.08320 36361 ft 444 kts 296°
2026-04-29 11:04 54.32627 95.98476 36373 ft 445 kts 296°
2026-04-29 11:05 54.34906 95.88612 36375 ft 445 kts 296°
2026-04-29 11:05 54.37166 95.78812 36369 ft 445 kts 296°
2026-04-29 11:06 54.39433 95.68940 36385 ft 444 kts 295°
2026-04-29 11:06 54.41689 95.59074 36389 ft 444 kts 295°
2026-04-29 11:07 54.43933 95.49203 36389 ft 444 kts 295°
2026-04-29 11:07 54.46176 95.39309 36390 ft 444 kts 295°
2026-04-29 11:08 54.48411 95.29409 36378 ft 444 kts 295°
2026-04-29 11:08 54.50630 95.19502 36392 ft 444 kts 295°
2026-04-29 11:09 54.52841 95.09584 36392 ft 444 kts 295°
2026-04-29 11:09 54.55042 94.99654 36400 ft 443 kts 295°
2026-04-29 11:10 54.57248 94.89729 36398 ft 443 kts 295°
2026-04-29 11:10 54.59443 94.79800 36396 ft 443 kts 295°
2026-04-29 11:11 54.61611 94.69852 36399 ft 443 kts 295°
2026-04-29 11:11 54.63760 94.59950 36399 ft 443 kts 295°
2026-04-29 11:12 54.65923 94.49984 36406 ft 443 kts 295°
2026-04-29 11:12 54.68087 94.40002 36410 ft 443 kts 295°
2026-04-29 11:13 54.70233 94.30026 36402 ft 443 kts 295°
2026-04-29 11:13 54.72366 94.20030 36406 ft 443 kts 295°
2026-04-29 11:14 54.74488 94.10036 36411 ft 443 kts 295°
2026-04-29 11:14 54.76613 94.00034 36417 ft 442 kts 295°
2026-04-29 11:15 54.78726 93.90023 36422 ft 443 kts 294°
2026-04-29 11:15 54.80820 93.79999 36418 ft 442 kts 294°
2026-04-29 11:16 54.82912 93.69959 36406 ft 442 kts 294°
2026-04-29 11:16 54.85001 93.59921 36417 ft 442 kts 294°
2026-04-29 11:17 54.87079 93.49880 36420 ft 442 kts 294°
2026-04-29 11:17 54.89137 93.39823 36419 ft 442 kts 294°
2026-04-29 11:18 54.91187 93.29761 36420 ft 442 kts 294°
2026-04-29 11:18 54.93234 93.19700 36400 ft 441 kts 294°
2026-04-29 11:19 54.95269 93.09635 36407 ft 441 kts 294°
2026-04-29 11:19 54.97293 92.99566 36423 ft 440 kts 294°
2026-04-29 11:20 54.99303 92.89566 36423 ft 440 kts 294°
2026-04-29 11:20 55.01307 92.79498 36423 ft 440 kts 294°
2026-04-29 11:21 55.03305 92.69419 36397 ft 439 kts 294°
2026-04-29 11:21 55.05294 92.59345 36415 ft 439 kts 294°
2026-04-29 11:22 55.07267 92.49274 36420 ft 438 kts 294°
2026-04-29 11:22 55.09230 92.39192 36419 ft 438 kts 293°
2026-04-29 11:23 55.11187 92.29111 36418 ft 438 kts 293°
2026-04-29 11:23 55.13137 92.19018 36388 ft 438 kts 293°
2026-04-29 11:24 55.15059 92.08994 36393 ft 437 kts 293°
2026-04-29 11:24 55.16986 91.98916 36399 ft 436 kts 293°
2026-04-29 11:25 55.18897 91.88835 36398 ft 436 kts 293°
2026-04-29 11:25 55.20800 91.78754 36393 ft 436 kts 293°
2026-04-29 11:26 55.23645 91.63598 36370 ft 436 kts 292°
2026-04-29 11:26 55.25532 91.53491 36375 ft 436 kts 292°
2026-04-29 11:27 55.27409 91.43378 36384 ft 436 kts 292°
2026-04-29 11:27 55.29279 91.33269 36390 ft 436 kts 292°
2026-04-29 11:28 55.31128 91.23207 36392 ft 436 kts 292°
2026-04-29 11:28 55.32974 91.13062 36392 ft 436 kts 292°
2026-04-29 11:29 55.34814 91.02911 36387 ft 435 kts 292°
2026-04-29 11:29 55.36650 90.92756 36388 ft 435 kts 292°
2026-04-29 11:30 55.38460 90.82687 36394 ft 434 kts 292°
2026-04-29 11:30 55.40279 90.72493 36393 ft 434 kts 291°
2026-04-29 11:31 55.42062 90.62407 36389 ft 434 kts 291°
2026-04-29 11:31 55.43850 90.52263 36363 ft 434 kts 291°
2026-04-29 11:32 55.45634 90.42105 36370 ft 434 kts 291°
2026-04-29 11:32 55.47408 90.31952 36372 ft 433 kts 291°
2026-04-29 11:33 55.49171 90.21799 36370 ft 433 kts 291°
2026-04-29 11:33 55.50927 90.11614 36371 ft 433 kts 291°
2026-04-29 11:34 55.52670 90.01440 36377 ft 433 kts 291°
2026-04-29 11:34 55.54393 89.91330 36370 ft 432 kts 290°
2026-04-29 11:35 55.56125 89.81175 36380 ft 432 kts 290°
2026-04-29 11:35 55.57841 89.70993 36386 ft 431 kts 290°
2026-04-29 11:36 55.59538 89.60823 36380 ft 431 kts 290°
2026-04-29 11:36 55.61236 89.50644 36374 ft 431 kts 290°
2026-04-29 11:37 55.62925 89.40470 36372 ft 431 kts 290°
2026-04-29 11:37 55.64595 89.30358 36369 ft 430 kts 290°
2026-04-29 11:38 55.66264 89.20174 36369 ft 431 kts 290°
2026-04-29 11:38 55.67920 89.09958 36368 ft 431 kts 290°
2026-04-29 11:39 55.69566 88.99741 36366 ft 431 kts 290°
2026-04-29 11:39 55.71074 88.89446 36366 ft 432 kts 287°
2026-04-29 11:40 55.72375 88.79032 36355 ft 432 kts 286°
2026-04-29 11:40 55.73640 88.68604 36364 ft 432 kts 286°
2026-04-29 11:41 55.74942 88.58200 36370 ft 432 kts 287°
2026-04-29 11:41 55.76257 88.47853 36371 ft 431 kts 287°
2026-04-29 11:42 55.77560 88.37451 36388 ft 431 kts 286°
2026-04-29 11:42 55.78842 88.27046 36373 ft 430 kts 286°
2026-04-29 11:43 55.80117 88.16666 36387 ft 429 kts 286°
2026-04-29 11:43 55.81384 88.06303 36388 ft 429 kts 286°
2026-04-29 11:44 55.82649 87.95932 36388 ft 428 kts 286°
2026-04-29 11:44 55.83893 87.85579 36387 ft 428 kts 286°
2026-04-29 11:45 55.85133 87.75221 36387 ft 428 kts 286°
2026-04-29 11:45 55.86357 87.64866 36374 ft 427 kts 285°
2026-04-29 11:46 55.87566 87.54511 36374 ft 427 kts 285°
2026-04-29 11:46 55.88773 87.44156 36379 ft 427 kts 285°
2026-04-29 11:47 55.89970 87.33859 36379 ft 427 kts 285°
2026-04-29 11:47 55.91165 87.23484 36384 ft 427 kts 285°
2026-04-29 11:48 55.92347 87.13112 36370 ft 426 kts 285°
2026-04-29 11:48 55.93317 87.04491 36386 ft 426 kts 285°
2026-04-29 11:49 55.94475 86.94124 36388 ft 426 kts 284°
2026-04-29 11:49 55.95622 86.83770 36375 ft 425 kts 284°
2026-04-29 11:50 55.96765 86.73394 36377 ft 425 kts 284°
2026-04-29 11:50 55.97890 86.63092 36377 ft 425 kts 284°
2026-04-29 11:51 55.99017 86.52720 36358 ft 425 kts 284°
2026-04-29 11:51 56.00142 86.42360 36383 ft 424 kts 284°
2026-04-29 11:52 56.01255 86.32013 36383 ft 424 kts 284°
2026-04-29 11:52 56.02346 86.21669 36383 ft 423 kts 284°
2026-04-29 11:53 56.03421 86.11314 36388 ft 423 kts 284°
2026-04-29 11:53 56.04492 86.00976 36358 ft 423 kts 283°
2026-04-29 11:54 56.05556 85.90717 36360 ft 422 kts 283°
2026-04-29 11:54 56.06615 85.80368 36364 ft 422 kts 283°
2026-04-29 11:55 56.07660 85.70035 36369 ft 422 kts 283°
2026-04-29 11:55 56.08702 85.59680 36371 ft 422 kts 283°
2026-04-29 11:56 56.09393 85.52763 36368 ft 422 kts 283°